Theta_e
325 318 319 317 305 305 300 303 307 307 308 313 318 313 313 318 316 310 329 336 339 338 340 341 345 346 344 344 346 347 347 347 347 347 347 346 346 347 345 345 343 340 340 340 339 338 338 338 338
320 318 317 313 300 297 299 305 305 309 312 316 314 314 313 315 326 325 327 336 338 336 336 338 342 345 344 344 344 346 346 347 347 347 346 345 344 345 344 344 341 337 340 339 338 337 336 336 337
320 317 312 306 300 296 298 305 307 311 314 314 312 317 318 319 325 326 333 334 337 335 336 340 343 346 345 343 342 342 341 344 345 344 343 345 343 343 344 343 343 340 338 338 337 336 336 336 336
313 315 312 300 298 301 303 306 311 310 310 312 312 313 322 327 326 331 334 333 335 334 336 340 343 344 344 343 341 341 341 341 341 340 340 340 341 343 344 343 342 341 338 337 336 335 335 335 334
315 313 304 299 299 302 305 310 312 309 309 309 309 312 318 328 332 333 331 331 335 333 336 338 341 342 343 342 341 341 341 339 339 338 338 338 339 341 343 343 343 340 337 336 335 334 333 332 332
311 311 301 299 298 302 304 310 311 307 309 310 309 316 319 329 330 331 330 329 336 333 334 336 335 339 341 341 341 340 340 339 338 338 337 337 338 340 341 340 341 339 337 336 334 333 332 331 330
311 306 301 304 299 301 305 310 307 306 307 307 314 313 321 325 329 332 329 328 335 335 332 333 335 335 335 337 337 337 338 338 338 338 337 335 335 337 334 337 339 338 337 336 334 333 331 331 329
312 309 303 302 299 300 307 309 309 308 308 314 316 311 315 325 329 331 329 327 332 334 332 330 332 333 334 334 332 333 335 336 335 334 331 329 330 331 331 332 336 336 335 333 333 332 331 329 328
315 305 302 303 303 301 308 306 308 308 310 310 314 316 323 331 329 328 325 325 328 331 332 331 331 331 331 334 329 329 330 331 330 329 327 326 327 327 330 329 333 334 333 331 330 329 329 328 326
311 305 306 311 308 303 307 307 306 306 309 308 312 321 330 330 326 325 323 322 324 326 328 332 330 331 332 331 331 332 331 330 329 327 326 327 326 326 327 323 328 330 329 329 328 327 327 325 322
313 308 312 313 308 306 306 306 307 304 305 308 310 318 326 327 326 325 324 323 323 325 329 330 331 332 330 330 330 329 328 329 329 328 328 327 325 323 326 324 324 323 320 321 323 321 322 321 321
304 314 315 315 306 304 303 305 304 305 304 306 311 322 326 324 325 325 324 324 324 325 327 330 330 333 332 332 331 331 330 328 327 328 329 326 325 324 321 322 323 324 323 321 319 319 318 319 320
306 309 312 305 304 304 303 302 300 303 307 307 315 321 324 325 326 326 327 326 325 323 325 327 329 329 334 332 332 331 329 329 327 327 328 329 326 324 323 320 319 319 320 320 318 316 318 317 318
310 310 308 304 302 302 302 301 300 303 306 305 312 317 321 322 325 326 327 325 325 325 324 327 327 329 333 331 331 332 331 329 329 327 327 328 328 326 324 321 320 318 317 316 316 315 317 317 317
307 305 305 302 305 304 303 300 298 304 304 304 307 314 318 321 324 325 327 325 326 326 326 326 326 329 328 330 330 330 330 329 328 329 329 328 329 328 325 323 321 320 320 320 320 320 319 318 318
300 299 297 304 304 302 300 300 308 305 304 303 304 306 313 319 322 325 326 326 327 327 326 325 328 327 328 328 330 329 328 328 327 328 329 329 330 329 326 327 326 326 323 322 321 320 319 318 317
299 293 296 300 306 300 298 298 308 312 306 303 303 305 309 313 317 321 323 327 327 328 327 326 325 324 326 328 328 329 328 327 328 328 328 329 330 330 328 327 328 328 324 325 324 323 321 320 319
292 294 297 297 302 302 296 297 304 305 301 303 304 304 305 310 315 319 322 324 326 327 328 327 326 324 325 326 326 327 328 328 328 327 328 329 330 330 328 328 328 325 321 321 321 320 320 319 318
300 299 298 302 302 298 298 298 302 305 306 301 302 304 305 308 313 319 321 323 324 325 327 328 326 326 325 325 324 323 324 326 326 327 328 328 329 329 328 327 325 323 321 320 321 320 319 318 317
302 300 300 301 297 294 296 297 301 302 303 305 305 304 304 304 309 315 320 322 324 325 326 327 328 328 327 326 326 325 325 325 327 327 327 328 328 328 328 328 326 326 323 323 321 319 317 317 318
300 299 300 301 296 295 293 293 297 301 303 302 303 303 304 304 304 309 315 320 322 324 325 327 328 329 330 328 327 325 325 325 325 327 327 328 328 329 329 329 327 325 323 322 321 320 318 316 316
297 302 302 300 293 288 295 284 293 296 301 303 302 299 300 301 303 305 313 316 321 324 325 327 329 330 331 330 327 326 325 323 326 327 329 330 328 328 329 330 328 326 325 323 321 320 318 317 315
297 301 299 296 294 292 291 286 289 295 294 298 303 302 301 301 301 302 308 316 321 323 325 327 328 329 330 331 330 328 326 327 328 328 328 329 330 328 329 329 328 327 327 325 324 319 318 318 316
300 296 296 294 292 284 290 288 286 290 294 296 298 304 305 305 304 302 303 311 318 320 322 324 325 326 329 330 331 329 327 326 326 327 327 329 330 330 329 328 328 328 328 326 326 323 319 319 318
297 292 282 282 283 280 285 286 289 294 295 296 296 298 297 299 303 304 301 302 309 314 320 321 322 322 324 327 329 330 330 327 326 327 328 328 329 329 329 328 328 327 327 327 325 324 322 320 318
293 293 283 277 278 279 282 280 287 296 296 297 295 294 296 295 296 296 299 301 302 306 312 318 319 320 321 323 325 328 330 329 329 328 329 329 329 330 330 329 328 327 325 324 323 322 320 319 317
293 291 293 283 276 279 283 287 294 296 295 296 296 296 295 295 298 298 297 299 301 301 303 307 309 312 317 321 322 324 327 328 328 327 327 328 328 327 328 327 326 324 323 323 320 317 314 315 313
296 296 286 286 274 274 281 282 285 289 293 294 294 294 294 294 295 296 297 298 299 298 300 302 302 303 306 308 317 322 324 325 328 328 328 328 328 328 328 326 323 320 319 321 319 313 311 308 305
288 290 290 289 286 279 277 282 291 292 294 292 292 294 294 294 296 296 297 299 300 300 300 300 301 302 303 304 309 313 316 319 323 323 323 323 323 322 322 321 319 316 314 313 310 307 305 304 301
292 292 290 285 282 284 283 283 292 293 293 293 293 295 294 295 296 296 298 298 299 300 302 302 303 303 304 305 305 306 310 312 316 318 320 320 319 317 316 313 311 309 307 306 305 302 301 300 298
Wind_Speed
16 12 4 3 1 3 5 3 8 7 5 3 8 6 6 9 6 9 6 14 17 14 10 10 9 11 13 12 11 11 13 14 14 15 17 16 16 17 18 18 16 17 19 19 19 18 18 17 16
8 12 1 4 2 3 4 8 7 6 8 8 6 2 5 7 6 11 7 12 14 13 11 9 9 10 12 11 10 11 14 16 16 14 16 17 16 16 16 16 16 17 19 19 19 18 17 16 15
11 8 2 2 4 4 5 8 10 9 6 5 5 7 6 5 9 8 10 11 17 11 13 9 9 11 12 11 11 11 13 15 15 17 17 16 15 15 14 15 16 16 18 18 18 18 17 16 14
5 2 3 1 8 5 7 7 13 8 3 5 4 9 6 4 4 8 13 9 15 13 13 10 11 14 13 12 12 11 13 15 14 15 15 16 17 14 13 14 15 18 16 17 17 17 16 15 14
3 4 4 4 1 7 5 10 10 8 8 6 2 6 7 5 12 12 12 9 15 12 11 10 11 13 13 12 13 13 13 14 15 15 14 13 14 12 15 15 16 17 16 16 16 17 16 15 13
4 2 3 5 2 7 3 4 8 5 7 7 5 9 5 6 11 8 9 9 15 12 10 9 11 11 12 12 12 12 12 12 13 14 14 13 11 11 14 13 16 17 15 15 14 14 14 14 12
1 3 6 6 7 5 5 5 6 6 8 5 5 8 6 7 9 8 8 8 15 13 11 9 9 9 11 10 11 11 11 11 13 12 11 11 11 9 11 12 15 14 13 12 12 11 12 12 10
3 3 5 4 3 4 4 5 3 8 5 2 5 5 7 7 10 8 8 7 10 13 12 10 9 8 8 6 9 9 10 12 11 11 11 11 9 10 10 12 13 12 11 10 9 8 8 8 7
2 5 5 7 3 5 6 5 2 1 6 3 4 5 8 16 10 8 7 6 6 6 11 11 9 9 8 8 7 8 9 10 10 7 8 9 4 6 7 8 12 11 9 8 7 6 5 4 5
4 4 7 11 6 1 6 6 8 5 8 4 6 7 15 15 8 9 10 7 8 6 7 11 8 8 10 7 7 6 8 5 5 5 6 4 5 4 6 6 10 8 7 6 4 2 3 4 3
3 4 9 11 6 8 4 4 4 4 6 8 11 10 15 14 10 10 9 9 8 5 2 6 7 7 7 7 5 3 3 4 5 7 4 5 5 4 4 3 3 3 4 3 3 1 2 5 4
5 6 5 6 1 1 3 2 4 6 3 5 5 18 14 16 15 13 10 9 10 10 8 7 7 9 8 4 3 5 4 3 3 4 6 4 3 4 5 4 4 4 3 3 2 3 2 2 2
7 5 10 2 3 3 3 4 2 7 6 8 9 14 16 13 13 11 10 8 10 9 10 7 9 6 8 7 4 4 2 4 5 4 5 4 4 4 4 4 4 3 2 2 2 2 1 1 1
6 7 7 7 5 3 4 5 3 8 8 10 9 11 12 11 13 11 13 14 13 12 11 9 7 7 11 8 6 4 3 3 4 5 5 5 4 4 3 3 3 3 3 2 3 3 1 1 2
2 7 6 6 6 4 5 8 7 8 3 8 9 10 10 11 12 15 14 11 11 11 12 13 10 8 7 10 9 5 6 3 2 2 7 6 3 5 4 4 3 3 2 3 1 1 1 2 3
3 1 5 6 9 4 5 8 11 11 9 9 10 9 10 15 18 15 13 10 10 11 12 11 12 9 8 7 8 5 4 5 4 3 3 7 6 5 4 4 4 4 4 3 3 3 2 2 1
6 4 6 4 14 7 8 2 7 9 12 9 8 10 10 9 9 9 11 14 12 12 11 12 11 9 9 8 6 8 7 5 5 6 5 7 7 6 6 4 4 4 3 3 1 1 1 2 1
6 4 8 7 8 8 7 10 8 5 2 7 8 8 10 11 12 9 11 10 11 10 12 12 11 11 8 6 5 4 5 6 5 5 7 7 7 8 6 5 6 5 3 3 2 3 2 2 1
14 12 8 12 5 5 9 9 11 10 8 8 8 8 7 11 11 12 10 10 9 9 11 14 13 11 9 8 8 6 8 6 5 5 8 8 7 7 7 4 5 5 5 6 5 3 5 4 4
9 12 10 5 6 2 7 12 9 10 10 10 10 9 9 7 10 12 14 12 14 15 15 14 14 12 12 10 9 7 7 5 7 5 6 7 8 8 7 7 7 8 6 6 6 6 3 3 4
14 11 9 6 5 5 6 11 12 11 11 9 10 8 9 9 9 10 12 13 10 13 15 16 17 18 16 14 7 4 4 3 4 7 7 7 8 8 10 9 8 8 6 5 5 5 6 3 3
16 11 9 8 4 2 7 7 6 5 16 17 13 11 12 10 8 8 13 12 13 16 11 13 15 16 15 15 12 13 10 9 9 9 7 9 11 10 9 11 11 9 8 8 7 6 5 4 4
5 9 4 6 1 6 5 2 7 7 6 8 18 14 13 12 10 9 10 16 17 15 15 15 15 15 15 16 14 12 12 10 8 7 10 10 11 13 13 12 11 10 9 9 10 7 8 7 4
8 10 7 3 2 7 10 8 6 6 7 8 4 10 14 12 11 12 10 9 12 12 11 11 13 15 17 16 19 17 16 12 9 10 8 8 7 9 12 11 11 10 10 11 10 10 8 8 7
8 12 4 2 5 8 6 8 11 5 3 2 1 6 4 3 4 7 10 9 8 10 12 10 10 12 9 11 13 16 14 13 13 11 10 10 9 8 11 12 11 8 10 9 7 8 9 8 8
20 13 7 8 6 4 4 8 7 8 2 5 3 3 6 4 2 4 4 8 9 9 9 9 9 9 9 9 11 9 12 8 10 10 8 7 7 7 7 9 9 10 8 7 6 4 5 7 6
15 17 5 8 0 2 6 7 8 9 4 4 7 7 7 6 7 8 5 4 6 7 9 10 9 8 8 10 8 8 9 12 10 9 7 6 6 5 8 8 10 8 8 9 8 4 5 4 5
18 11 5 2 6 5 5 5 7 4 7 6 5 5 3 4 5 3 1 3 2 2 3 6 7 9 8 7 7 9 8 8 10 7 9 7 6 7 8 8 8 7 7 8 8 5 5 6 4
7 16 6 5 5 6 2 7 6 10 8 8 7 6 5 3 2 2 3 4 3 1 1 3 4 4 4 5 4 4 3 4 5 5 4 4 3 6 6 6 7 7 7 7 7 7 8 7 7
6 12 5 6 6 2 3 7 3 9 9 9 8 7 5 3 3 2 2 3 3 3 3 4 4 4 4 4 3 2 2 2 3 3 5 5 6 5 6 6 5 6 6 6 7 8 7 9 8
Wind_Direction
307 314 283 314 327 224 121 81 96 89 112 74 47 37 66 47 23 117 157 106 111 104 122 98 87 100 104 101 91 86 85 90 88 96 94 88 85 90 92 85 85 83 80 77 76 74 72 71 71
304 305 254 270 227 249 101 121 126 100 87 96 93 299 37 72 82 113 116 123 118 117 111 102 91 98 97 94 104 108 88 81 84 94 93 93 89 90 95 94 88 84 77 76 73 71 71 71 71
284 264 300 283 257 353 113 147 109 87 114 151 110 63 15 78 127 149 126 117 111 112 94 101 93 116 94 80 81 83 101 81 80 86 82 87 89 85 90 95 88 85 81 77 74 73 73 75 70
321 247 268 262 274 41 91 116 105 115 56 1 66 85 83 251 141 124 123 128 109 106 105 106 95 100 98 88 84 92 98 92 90 87 83 82 79 82 88 83 92 91 84 80 78 74 72 68 61
265 279 275 234 292 86 5 101 124 159 155 158 248 90 102 26 99 134 130 120 115 111 118 116 104 104 104 101 94 87 88 91 92 88 85 82 80 72 89 78 93 91 86 80 75 71 69 68 61
306 268 251 237 165 89 82 94 143 136 117 82 127 98 103 138 131 137 133 128 117 122 120 123 111 104 103 102 101 97 96 95 95 95 94 91 83 72 88 85 84 87 84 80 78 77 73 69 60
325 359 270 286 126 131 125 179 152 143 138 160 101 117 120 161 147 141 125 137 123 129 130 134 127 116 105 107 111 108 101 95 94 88 90 91 96 78 92 77 82 88 86 84 82 80 76 72 61
93 59 290 313 137 134 120 180 35 50 62 83 24 137 159 163 142 142 128 138 127 137 140 139 135 140 130 128 117 118 126 106 99 101 105 100 99 94 104 100 93 89 89 85 82 88 90 87 72
130 69 270 238 296 111 143 120 24 348 115 79 48 45 134 140 141 143 138 152 129 147 148 142 154 148 139 130 123 103 99 115 118 124 142 138 142 127 86 85 102 102 99 97 93 97 114 120 121
176 136 242 337 341 49 157 193 136 161 126 124 95 78 114 139 154 166 156 164 149 178 153 146 162 154 146 141 157 145 143 159 154 155 174 224 88 102 103 90 105 112 117 124 131 170 210 218 220
198 192 159 286 346 355 153 228 117 195 173 188 166 156 143 148 173 177 172 167 163 145 259 143 151 144 139 134 179 149 179 178 160 176 164 121 115 127 137 137 146 148 188 188 191 234 21 29 27
203 209 175 224 229 358 289 298 159 234 119 94 137 156 154 165 183 187 175 172 157 162 203 171 200 155 147 157 175 170 169 146 162 160 153 141 162 179 159 177 181 175 186 148 140 104 77 63 82
210 212 176 99 126 253 38 251 248 215 198 107 97 149 165 168 187 185 172 197 165 172 186 221 171 174 149 139 180 197 220 154 173 156 180 178 162 175 170 154 163 187 146 160 146 144 155 140 62
176 209 186 156 182 205 248 211 126 234 244 133 149 163 170 178 186 179 194 194 174 173 176 184 206 177 149 161 175 181 219 200 162 156 186 227 158 162 168 156 171 159 175 171 166 173 167 196 149
80 208 163 162 209 235 201 267 218 244 138 157 181 176 171 181 175 199 197 188 178 177 175 175 194 180 174 159 172 185 184 197 154 192 176 200 195 173 167 165 170 176 175 156 102 157 211 228 200
212 254 181 200 166 198 172 253 219 220 204 208 190 210 187 184 190 191 184 190 182 177 180 176 184 184 174 171 166 189 178 164 168 222 214 181 196 189 182 180 181 168 150 181 193 204 234 235 217
213 180 200 273 185 133 182 268 241 251 210 198 224 195 189 193 191 187 181 186 190 181 177 180 174 187 181 174 172 171 184 176 179 182 218 186 184 203 180 185 195 147 161 159 138 27 81 33 357
140 200 186 208 195 192 195 242 286 305 342 210 237 248 186 178 191 196 195 179 180 176 178 181 177 181 181 176 176 171 178 183 182 185 202 198 181 186 200 189 154 151 165 200 166 189 230 225 267
173 191 198 216 150 153 238 249 241 236 240 219 244 248 238 181 183 183 187 180 187 179 182 183 176 179 182 188 185 183 198 188 189 195 189 192 181 186 191 193 159 160 182 200 186 185 202 222 199
191 171 214 353 121 173 266 261 232 219 231 215 217 239 250 200 181 180 185 185 191 193 187 177 174 183 197 196 196 194 185 189 196 190 199 185 184 186 191 180 178 183 193 190 186 181 199 228 179
218 209 187 199 152 226 294 282 237 235 238 213 216 208 240 221 200 183 179 189 189 202 195 187 184 192 196 196 188 178 170 191 182 203 198 192 185 187 190 189 179 190 182 196 197 187 184 204 219
207 220 155 199 112 241 154 285 310 278 223 217 212 210 221 229 223 199 181 184 192 205 199 206 197 196 196 185 188 195 195 194 207 200 198 188 192 200 199 196 190 186 188 189 193 188 190 172 201
190 116 99 95 285 324 236 265 268 231 261 212 213 215 216 216 216 217 193 193 199 194 201 199 202 204 195 191 196 194 201 207 197 198 198 195 194 200 205 201 196 194 185 200 192 179 191 193 183
134 114 95 104 121 265 216 204 263 212 217 217 194 201 214 218 206 210 214 196 203 191 193 201 203 211 202 197 196 199 204 202 204 205 206 206 205 200 205 200 201 199 195 193 200 191 185 198 197
155 135 123 164 201 231 347 197 238 270 121 68 304 273 310 40 234 210 198 198 191 185 192 187 191 211 216 210 206 208 210 202 206 210 208 201 202 200 207 202 207 203 203 196 183 176 184 183 192
174 166 152 179 187 202 310 230 247 244 14 129 222 261 296 272 231 266 242 200 186 184 179 180 188 204 194 200 212 208 209 205 211 217 214 213 205 204 199 203 206 208 189 183 170 170 182 170 173
198 196 127 105 5 71 202 252 289 262 218 256 266 188 240 247 216 223 229 203 186 191 193 187 187 202 201 201 198 204 205 208 210 209 202 195 186 190 186 188 201 196 185 178 167 165 153 156 145
183 152 152 211 151 235 251 234 228 205 205 215 170 179 107 58 16 348 229 182 123 133 193 203 205 206 211 214 204 207 208 203 208 196 212 205 188 190 190 175 174 174 175 175 162 143 142 148 134
156 185 183 133 167 172 154 258 205 174 166 157 116 96 72 40 47 12 75 82 84 77 230 229 205 215 203 212 212 196 205 193 176 186 186 180 162 160 167 167 163 161 161 154 144 139 138 145 127
234 191 150 165 207 213 151 267 194 136 139 129 142 135 141 160 142 89 126 145 175 214 202 203 188 174 178 181 151 147 165 176 176 189 200 186 185 178 161 151 149 150 151 148 141 139 134 138 143